User: anonymous   Login
Location: Hepcat Sky Observatory
(29.9800°N, 95.6500°W)
Time: 22:38:58
(UTC-05:00)
Language:

SL-16 Debris - Orbit

View from above orbital plane
View from above orbital plane
View from above satellite
View from above satellite

Ground track
Ground track

The orbit data is extracted from the following two-line orbital elements,

1 26076U 99040E   16060.83946657  .00007878  00000-0  58473-3 0  9994
2 26076  28.3799 316.1032 4561934   1.2113  25.5164  6.42304028282180
Epoch (UTC): 29 February 2016 20:08:49
Eccentricity: 0.4561934
inclination: 28.3799°
perigee height: 270 km
apogee height: 11423 km
right ascension of ascending node: 316.1032°
argument of perigee: 1.2113°
revolutions per day: 6.42304028
mean anomaly at epoch: 25.5164°
orbit number at epoch: 28218

The dashed part of the orbit path shows where the satellite is in the earth's shadow,  

DLR